Tracking 29510 objects as of 16-Sep-2024
HD Live streaming from Space Station
objects crossing your sky now

ARIANE 5 DEB (SYLDA)

Track ARIANE 5 DEB (SYLDA) now!
10-day predictions


NORAD ID: 54744
Int'l Code: 2022-170D
Perigee: 280.9 km
Apogee: 20,198.5 km
Inclination: 6.2 °
Period: 355.1 minutes
Semi major axis: 16610 km
RCS: Unknown
Launch date: December 13, 2022
Source: France (FR)
Launch site: FRENCH GUIANA (FRGUI)

Note: This is SATELLITE DEBRIS
Your satellite tracking list
Your tracking list is empty




NASA's NSSDC Master Catalog

Two Line Element Set (TLE):
1 54744U 22170D   24259.15558473  .00042463  00000-0  73152-2 0  9995
2 54744   6.2226 157.1095 5995409 289.4680  17.4211  4.05528764 20830
Source of the keplerian elements: AFSPC